CDT,Max TemperatureF,Mean TemperatureF,Min TemperatureF,Max Dew PointF,MeanDew PointF,Min DewpointF,Max Humidity, Mean Humidity, Min Humidity, Max Sea Level PressureIn, Mean Sea Level PressureIn, Min Sea Level PressureIn, Max VisibilityMiles, Mean VisibilityMiles, Min VisibilityMiles, Max Wind SpeedMPH, Mean Wind SpeedMPH, Max Gust SpeedMPH,PrecipitationIn, CloudCover, Events, WindDirDegrees
2013-3-1,31,23,14,22,20,13,88,79,69,30.40,30.32,30.21,10,10,10,20,11,23,0.00,5,,355
2013-3-2,37,23,9,28,21,8,100,82,64,30.40,30.26,30.00,10,9,6,14,6,20,0.00,1,,192
2013-3-3,46,37,27,36,31,27,92,81,70,30.03,29.80,29.63,10,8,5,15,7,21,0.00,0,,173
2013-3-4,46,37,27,34,29,13,92,71,49,30.16,29.83,29.62,10,10,7,32,17,39,T,5,Rain,337
2013-3-5,36,28,20,18,15,12,81,63,44,30.45,30.31,30.14,10,10,10,35,21,41,0.00,1,,332
2013-3-6,41,29,17,22,19,14,84,64,44,30.44,30.32,30.15,10,10,10,18,9,23,0.00,0,,130
2013-3-7,54,39,23,30,25,21,88,62,35,30.16,30.10,30.03,10,9,5,17,11,23,0.00,0,,138
2013-3-8,59,45,31,48,39,26,82,67,51,30.10,29.92,29.76,10,8,4,26,11,37,0.06,4,Rain-Thunderstorm,139
2013-3-9,65,48,30,52,42,28,100,78,56,29.79,29.63,29.48,10,4,0,35,18,44,1.17,8,Fog-Rain-Snow-Thunderstorm,121
2013-3-10,30,24,18,28,20,13,100,87,74,30.07,29.95,29.76,10,2,0,44,29,54,0.33,7,Fog-Snow,346
2013-3-11,52,34,15,32,20,10,82,62,41,30.09,29.99,29.84,10,10,10,20,10,25,0.00,1,,323
2013-3-12,42,33,24,27,19,11,85,57,28,30.39,30.25,30.11,10,10,10,33,15,41,0.00,1,,322
2013-3-13,48,34,19,29,21,15,91,64,36,30.42,30.33,30.17,10,10,10,17,8,24,0.00,2,,178
2013-3-14,73,54,34,44,35,29,89,55,20,30.15,30.10,30.04,10,10,10,17,8,23,0.00,0,,252
2013-3-15,77,60,43,46,36,30,77,48,19,30.03,29.81,29.66,10,10,7,17,8,22,0.00,0,,188
2013-3-16,43,36,29,35,24,20,82,67,52,30.15,30.06,29.86,10,10,10,26,14,33,T,4,,33
2013-3-17,46,36,26,34,28,21,100,77,53,30.11,29.86,29.68,10,7,1,20,10,25,0.10,7,Rain-Snow,142
2013-3-18,45,37,29,34,23,10,100,64,27,30.09,29.92,29.77,10,8,2,30,13,36,T,3,,317
2013-3-19,47,38,28,36,28,12,92,67,41,30.36,30.17,30.06,10,10,4,23,8,29,0.06,7,Rain-Snow,258
2013-3-20,42,29,16,21,16,13,88,61,34,30.44,30.30,30.06,10,10,10,15,7,22,0.00,1,,49
2013-3-21,42,35,27,25,18,11,69,55,40,30.01,29.91,29.82,10,10,3,23,14,31,0.01,5,Snow,112
2013-3-22,36,31,25,30,26,23,100,88,75,30.04,29.94,29.89,9,4,1,13,7,16,0.10,8,Snow,117
2013-3-23,31,27,23,29,26,21,92,85,78,30.17,30.04,29.98,10,2,0,28,15,33,0.08,8,Fog-Snow,33
2013-3-24,33,26,18,21,16,12,88,69,49,30.23,30.16,30.09,10,8,2,31,22,37,T,4,Snow,344
2013-3-25,30,23,15,16,15,12,84,67,50,30.43,30.31,30.15,10,10,10,26,16,33,T,5,,338
2013-3-26,45,29,13,23,16,10,88,61,33,30.42,30.32,30.20,10,10,10,14,7,20,0.00,0,,193
2013-3-27,54,40,25,28,25,22,84,61,38,30.23,30.17,30.12,10,10,10,17,6,24,0.00,1,,122
2013-3-28,62,44,25,33,28,23,85,55,25,30.22,30.18,30.12,10,10,7,14,6,18,0.00,0,,147
2013-3-29,69,51,32,50,38,27,96,64,31,30.18,30.09,29.99,10,9,2,18,7,25,0.29,2,Rain-Thunderstorm,143
2013-3-30,66,56,46,52,46,35,100,66,32,30.05,29.97,29.90,10,6,0,26,9,31,0.04,5,Fog-Rain-Thunderstorm,22
2013-3-31,61,47,33,42,33,27,96,62,27,30.14,30.02,29.89,10,10,10,30,12,39,0.01,3,Rain,347